Tracking 30923 objects as of 1-Jul-2025
HD Live streaming from Space Station
objects crossing your sky now

DELTA 1 DEB

Track DELTA 1 DEB now!
10-day predictions


NORAD ID: 21319
Int'l Code: 1975-052AM
Perigee: 1,064.3 km
Apogee: 1,421.8 km
Inclination: 99.6 °
Period: 110.2 minutes
Semi major axis: 7614 km
RCS: 0.0592 m2 (small)
Launch date: June 12, 1975
Source: United States (US)
Launch site: AIR FORCE WESTERN TEST RANGE (AFWTR)

Note: This is SATELLITE DEBRIS
Your satellite tracking list
THORAD AGENA D DEB
Track 1 satellite(s)




NASA's NSSDC Master Catalog

Two Line Element Set (TLE):
1 21319U 75052AM  25181.12721209  .00000232  00000-0  71844-3 0  9990
2 21319  99.6448  20.7348 0234728 292.0511 195.8453 13.06711005624223
Source of the keplerian elements: AFSPC